Regional Weather Roundup
Issued by NWS

Home | Current Version | Previous Version | Graphics & Text | Print | Product List | Glossary On
Versions: 1 2 3 4 5 6 7 8 9 10 11 12 13 14 15 16 17 18 19 20 21 22 23 24 25 26 27 28 29 30 31 32 33 34 35 36 37 38 39 40 41 42 43 44 45 46 47 48 49 50
000
ASUS43 KDMX 091206
RWRIA

WEATHER ROUNDUP FOR IOWA
NATIONAL WEATHER SERVICE DES MOINES IA
600 AM CST FRI DEC 09 2016

NOTE: "FAIR" INDICATES FEW OR NO CLOUDS BELOW 12,000 FEET WITH NO
SIGNIFICANT WEATHER AND/OR OBSTRUCTIONS TO VISIBILITY.

* - THESE STATIONS ARE NOT NWS STATIONS...THUS NOT UNDER NWS
QUALITY CONTROL.  THEY ALSO DO NOT REPORT WEATHER SUCH
AS PRECIPITATION OR FOG.

IAZ001>003-012>014-020>022-031>034-043>046-091300-
   NORTHWEST IOWA

CITY           SKY/WX    TMP DP  RH WIND       PRES   REMARKS
CARROLL *      PTCLDY     5   1  85 CALM      30.58S
CHEROKEE *     CLEAR      3   0  90 CALM      30.58S
DENISON *      CLEAR      5   1  85 CALM      30.57R
LE MARS *      CLEAR      3   0  85 CALM      30.59F
ORANGE CITY *  CLEAR      0  -2  92 CALM      30.55S
SHELDON *      CLEAR      1   0  92 W5        30.54S WCI  -8
SIOUX CITY     CLOUDY     5   0  79 CALM      30.61F
6HR MIN TEMP:   4; 6HR MAX TEMP:  11;

SPENCER        CLEAR      2  -2  83 W12       30.56F WCI -15
6HR MIN TEMP:   1; 6HR MAX TEMP:   7;

STORM LAKE *   CLEAR      3   0  85 W10       30.55S WCI -12
$$

IAZ055>058-069>071-079>083-090>094-091300-
   SOUTHWEST IOWA

CITY           SKY/WX    TMP DP  RH WIND       PRES   REMARKS
ATLANTIC *     CLEAR      7   3  85 CALM      30.60S
AUDUBON *      CLEAR      7   1  78 CALM      30.58R
CLARINDA *     CLEAR      7   5  92 CALM      30.65S
COUNCIL BLFS * CLEAR      7   5  92 CALM      30.60S
CRESTON *      CLEAR      7   3  85 W6        30.60R WCI  -3
HARLAN  *      CLEAR      3   0  85 NW3       30.63S
LAMONI         CLEAR      7   3  84 W7        30.60S WCI  -5
6HR MIN TEMP:   6; 6HR MAX TEMP:  13;

RED OAK *      CLEAR      5   3  92 CALM      30.63S
SHENANDOAH *   CLEAR      9   5  85 CALM      30.64S
$$

IAZ047>049-059>061-072>074-084-091300-
   CENTRAL IOWA

CITY           SKY/WX    TMP DP  RH WIND       PRES   REMARKS
AMES           CLEAR      9   7  92 NW7       30.60R WCI  -2
6HR MIN TEMP:   9; 6HR MAX TEMP:  17; 6HR PCP: TRACE;

ANKENY *       CLEAR     10   5  79 W5        30.62S WCI   2
BOONE *        CLEAR      9   3  78 NW6       30.57S WCI  -1
CHARITON *     CLEAR      9   7  92 NW7       30.59F WCI  -3
DES MOINES     CLEAR     11   5  77 NW7       30.60F WCI   0
6HR MIN TEMP:  10; 6HR MAX TEMP:  16;

GRINNELL*      FLURRIES  13   9  83 NW10      30.58S WCI   0
KNOXVILLE *    CLEAR      9   5  85 NW5       30.59S WCI   0
MARSHALLTOWN   CLOUDY    13   8  81 NW12      30.57S WCI  -1
6HR MIN TEMP:  13; 6HR MAX TEMP:  18; 6HR PCP: TRACE;

NEWTON *       CLOUDY    12   9  85 W7        30.58S WCI   2
PELLA *        CLOUDY    12   8  84 NW7       30.62R WCI   2
PERRY *          N/A      6   4  91 NW6       30.59F WCI  -4
$$

IAZ004>006-015-016-023>025-035-036-091300-
   NORTH CENTRAL IOWA

CITY           SKY/WX    TMP DP  RH WIND       PRES   REMARKS
ALGONA *       MOCLDY     9   5  85 NW7       30.55S WCI  -3
CLARION *      CLOUDY    12   9  85 NW8       30.56R WCI   1
ESTHERVILLE    CLEAR      2  -1  88 NW5       30.54F WCI  -8
6HR MIN TEMP:   1; 6HR MAX TEMP:  10;

FORT DODGE *   CLEAR      7   0  72 CALM      30.58F
MASON CITY     CLEAR     10   6  84 NW9       30.55S WCI  -3
6HR MIN TEMP:  10; 6HR MAX TEMP:  14;

FOREST CITY *  FLURRIES  10   7  85 NW7       30.54S WCI   0
WEBSTER CITY * CLEAR      7   3  85 NW8       30.56R WCI  -6
IOWA FALLS *     N/A     11   8  84 NW6       30.56F WCI   2
$$

IAZ007>011-017>019-026>030-037>042-050>054-066-091300-
   NORTHEAST IOWA

CITY           SKY/WX    TMP DP  RH WIND       PRES   REMARKS
CEDAR RAPIDS   PTCLDY    13  11  92 W10       30.56R WCI   0
6HR MIN TEMP:  11; 6HR MAX TEMP:  19; 6HR PCP: TRACE;

CHARLES CITY * MOCLDY    10   7  85 NW10      30.55R WCI  -3
CLINTON *      FLURRIES  17  13  84 W14       30.55R WCI   3
DECORAH *      CLEAR     12   9  85 VRB5      30.51S WCI   4
DUBUQUE        FLURRIES  16  12  84 NW10      30.51R WCI   4
6HR MIN TEMP:  16; 6HR MAX TEMP:  18; 6HR PCP: TRACE;

MONTICELLO *   CLOUDY    14   9  79 NW5       30.55R WCI   6
OELWEIN *      MOCLDY    10   9  92 NW9       30.54S WCI  -2
WATERLOO       CLEAR     12   7  80 W5        30.56S WCI   4
6HR MIN TEMP:  12; 6HR MAX TEMP:  17;

$$

IAZ064-065-067-068-078-091300-
   EAST CENTRAL IOWA

CITY           SKY/WX    TMP DP  RH WIND       PRES   REMARKS
DAVENPORT      CLOUDY    17  11  77 W13       30.56R WCI   4
6HR MIN TEMP:  16; 6HR MAX TEMP:  21;

IOWA CITY      CLEAR     16  10  77 NW9       30.60R WCI   4
6HR MIN TEMP:  16; 6HR MAX TEMP:  21; 6HR PCP: TRACE;

MUSCATINE *    CLOUDY    16  10  79 NW7       30.61R WCI   6
QUAD CITIES    CLOUDY    19  11  70 W13       30.57R WCI   6
6HR MIN TEMP:  19; 6HR MAX TEMP:  23;

$$

IAZ062-063-075>077-085>089-095>099-091300-
   SOUTHEAST IOWA

CITY           SKY/WX    TMP DP  RH WIND       PRES   REMARKS
BURLINGTON     CLOUDY    19  11  70 NW8       30.58S WCI   9
6HR MIN TEMP:  19; 6HR MAX TEMP:  22; 6HR PCP: TRACE;

FAIRFIELD *    CLOUDY    19   9  63 NW10      30.59R WCI   8
FORT MADISON * FLURRIES  19  12  73 NW10      30.59S WCI   8
KEOKUK *       CLOUDY    19  12  73 NW10G16   30.59S WCI   8
OSKALOOSA *    FLURRIES  16  12  84 NW10      30.60S WCI   3
CENTERVILLE *    N/A      9   7  92 CALM      30.61S
OTTUMWA        CLOUDY    17   9  70 NW10      30.58F WCI   5
6HR MIN TEMP:  17; 6HR MAX TEMP:  21; 6HR PCP: TRACE;

WASHINGTON *   MOCLDY    16  10  79 NW9       30.61R WCI   4
$$

ABBREVIATIONS USED IN REMARKS
   TC - TEMPERATURES IN CELSIUS
  WCI - WIND CHILL INDEX
   HX - HEAT INDEX
  VSB - VISIBILITY
$$




USA.gov is the U.S. government's official web portal to all federal, state and local government web resources and services.